• In Uzbekistan
  • List of Countries
  • For 7 days
  • Water Temperature
  • Satellite Maps
  • Weather Map
  • Weather Widgets
  • user-avatar
    Login

    Hourly Weather Prince George

    Today, 23 November, Thursday

    Time Temperature Precipitation Wind Pressure Humidity
    00:00 +3°C° 0.3 mm 3 mps 687 mmHg 97%
    01:00 +3°C° 0.3 mm 3 mps 687 mmHg 97%
    02:00 +3°C° 0 mm 3 mps 686 mmHg 93%
    03:00 +3°C° 0 mm 3 mps 686 mmHg 89%
    04:00 +3°C° 0 mm 3 mps 686 mmHg 85%
    05:00 +2°C° 0 mm 3 mps 686 mmHg 84%
    06:00 +2°C° 0 mm 3 mps 685 mmHg 83%
    07:00 +1°C° 0 mm 3 mps 685 mmHg 83%
    08:00 +2°C° 0.2 mm 3 mps 685 mmHg 83%
    09:00 +2°C° 0.2 mm 3 mps 684 mmHg 84%
    10:00 +2°C° 0.2 mm 3 mps 684 mmHg 84%
    11:00 +3°C° 0.2 mm 3 mps 685 mmHg 85%
    12:00 +3°C° 0.2 mm 3 mps 685 mmHg 86%
    13:00 +3°C° 0.2 mm 3 mps 685 mmHg 86%
    14:00 +3°C° 0 mm 3 mps 685 mmHg 87%
    15:00 +2°C° 0 mm 3 mps 686 mmHg 88%
    16:00 +3°C° 0 mm 2 mps 686 mmHg 88%
    17:00 +1°C° 0.1 mm 3 mps 686 mmHg 88%
    18:00 +1°C° 0.1 mm 3 mps 687 mmHg 88%
    19:00 +1°C° 0.1 mm 3 mps 687 mmHg 88%
    20:00 +2°C° 0.1 mm 2 mps 688 mmHg 88%
    21:00 +1°C° 0.1 mm 2 mps 688 mmHg 87%
    22:00 +1°C° 0.1 mm 2 mps 689 mmHg 87%
    23:00 +1°C° 0.1 mm 2 mps 689 mmHg 87%

    Tomorrow, 24 November, Friday

    Time Temperature Precipitation Wind Pressure Humidity
    00:00 +1°C° 0.1 mm 2 mps 690 mmHg 88%
    01:00 +1°C° 0.1 mm 1 mps 690 mmHg 89%
    02:00 +1°C° 0.2 mm 1 mps 691 mmHg 90%
    03:00 +1°C° 0.2 mm 1 mps 691 mmHg 92%
    04:00 +1°C° 0.2 mm 1 mps 692 mmHg 93%
    05:00 -1°C° 0 mm 2 mps 692 mmHg 94%
    06:00 -1°C° 0 mm 2 mps 692 mmHg 95%
    07:00 -2°C° 0 mm 2 mps 692 mmHg 95%
    08:00 -1°C° 0 mm 2 mps 691 mmHg 93%
    09:00 0°C° 0 mm 3 mps 691 mmHg 91%
    10:00 +1°C° 0 mm 3 mps 691 mmHg 89%
    11:00 +1°C° 0 mm 3 mps 690 mmHg 89%
    12:00 +2°C° 0 mm 3 mps 690 mmHg 88%
    13:00 +2°C° 0 mm 3 mps 690 mmHg 87%
    14:00 +2°C° 0.2 mm 3 mps 689 mmHg 87%
    15:00 +2°C° 0.2 mm 3 mps 689 mmHg 87%
    16:00 +2°C° 0.2 mm 3 mps 689 mmHg 87%
    17:00 +1°C° 0.1 mm 3 mps 689 mmHg 86%
    18:00 +1°C° 0.1 mm 3 mps 689 mmHg 86%
    19:00 0°C° 0.1 mm 4 mps 690 mmHg 85%
    20:00 +1°C° 0.2 mm 3 mps 690 mmHg 86%
    21:00 +1°C° 0.2 mm 3 mps 690 mmHg 86%
    22:00 +1°C° 0.2 mm 3 mps 690 mmHg 87%
    23:00 +1°C° 0.4 mm 3 mps 690 mmHg 88%

    Day after tomorrow, 25 November, Saturday

    Time Temperature Precipitation Wind Pressure Humidity
    00:00 +1°C° 0.4 mm 3 mps 691 mmHg 88%
    01:00 +1°C° 0.4 mm 3 mps 691 mmHg 89%
    02:00 +2°C° 0.6 mm 2 mps 691 mmHg 90%
    03:00 +1°C° 0.6 mm 2 mps 691 mmHg 92%
    04:00 +2°C° 0.6 mm 1 mps 692 mmHg 93%
    05:00 +2°C° 0.7 mm 1 mps 692 mmHg 94%
    06:00 +2°C° 0.7 mm 1 mps 692 mmHg 95%
    07:00 +2°C° 0.7 mm 1 mps 693 mmHg 96%
    08:00 +2°C° 0.5 mm 1 mps 693 mmHg 96%
    09:00 +2°C° 0.5 mm 1 mps 693 mmHg 96%
    10:00 +3°C° 0.5 mm 1 mps 693 mmHg 96%
    11:00 +3°C° 0.3 mm 1 mps 693 mmHg 97%
    12:00 +3°C° 0.3 mm 1 mps 693 mmHg 97%
    13:00 +3°C° 0.3 mm 1 mps 692 mmHg 98%
    14:00 +3°C° 0.3 mm 1 mps 692 mmHg 97%
    15:00 +3°C° 0.3 mm 1 mps 692 mmHg 97%
    16:00 +2°C° 0.3 mm 1 mps 691 mmHg 97%
    17:00 +2°C° 0.2 mm 1 mps 691 mmHg 96%
    18:00 +2°C° 0.2 mm 1 mps 690 mmHg 96%
    19:00 +1°C° 0.2 mm 1 mps 690 mmHg 96%
    20:00 +1°C° 0.4 mm 1 mps 689 mmHg 96%
    21:00 +1°C° 0.4 mm 1 mps 688 mmHg 96%
    22:00 -1°C° 0.4 mm 2 mps 688 mmHg 96%
    23:00 -1°C° 1 mm 2 mps 687 mmHg 96%

    26 November, Sunday

    Time Temperature Precipitation Wind Pressure Humidity
    00:00 -1°C° 1 mm 2 mps 686 mmHg 96%
    01:00 -2°C° 1 mm 2 mps 685 mmHg 96%
    02:00 -2°C° 0.9 mm 2 mps 684 mmHg 96%
    03:00 -3°C° 0.9 mm 2 mps 683 mmHg 96%
    04:00 -3°C° 0.9 mm 2 mps 683 mmHg 96%
    05:00 -4°C° 1 mm 2 mps 682 mmHg 96%
    06:00 -4°C° 1 mm 2 mps 682 mmHg 96%
    07:00 -5°C° 1 mm 2 mps 682 mmHg 96%
    08:00 -5°C° 0.2 mm 2 mps 682 mmHg 96%
    09:00 -3°C° 0.2 mm 1 mps 683 mmHg 95%
    10:00 -3°C° 0.2 mm 1 mps 683 mmHg 94%
    11:00 -3°C° 0 mm 1 mps 683 mmHg 94%
    12:00 -2°C° 0 mm 1 mps 684 mmHg 93%
    13:00 -2°C° 0 mm 1 mps 684 mmHg 92%
    14:00 -2°C° 0.4 mm 1 mps 685 mmHg 94%
    15:00 -2°C° 0.4 mm 1 mps 685 mmHg 95%
    16:00 -4°C° 0.4 mm 0 mps 686 mmHg 97%
    17:00 -3°C° 0.1 mm 1 mps 687 mmHg 96%
    18:00 -3°C° 0.1 mm 1 mps 688 mmHg 96%
    19:00 -3°C° 0.1 mm 1 mps 689 mmHg 95%
    20:00 -3°C° 0 mm 1 mps 689 mmHg 93%
    21:00 -5°C° 0 mm 2 mps 690 mmHg 91%
    22:00 -5°C° 0 mm 2 mps 690 mmHg 89%
    23:00 -6°C° 0 mm 2 mps 691 mmHg 88%

    27 November, Monday

    Time Temperature Precipitation Wind Pressure Humidity
    00:00 -6°C° 0 mm 2 mps 692 mmHg 87%
    01:00 -6°C° 0 mm 2 mps 692 mmHg 86%
    02:00 -7°C° 0 mm 2 mps 693 mmHg 87%
    03:00 -7°C° 0 mm 2 mps 694 mmHg 88%
    04:00 -7°C° 0 mm 2 mps 695 mmHg 89%
    05:00 -8°C° 0 mm 2 mps 696 mmHg 90%
    06:00 -8°C° 0 mm 2 mps 696 mmHg 91%
    07:00 -8°C° 0 mm 2 mps 697 mmHg 91%
    08:00 -7°C° 0 mm 2 mps 698 mmHg 91%
    09:00 -6°C° 0 mm 2 mps 699 mmHg 90%
    10:00 -5°C° 0 mm 2 mps 699 mmHg 89%
    11:00 -4°C° 0 mm 2 mps 700 mmHg 89%
    12:00 -3°C° 0 mm 2 mps 700 mmHg 88%
    13:00 -2°C° 0 mm 2 mps 701 mmHg 88%
    14:00 -2°C° 0 mm 2 mps 701 mmHg 89%
    15:00 -3°C° 0 mm 2 mps 701 mmHg 90%
    16:00 -3°C° 0 mm 2 mps 702 mmHg 92%
    17:00 -4°C° 0 mm 2 mps 702 mmHg 92%
    18:00 -4°C° 0 mm 2 mps 702 mmHg 92%
    19:00 -5°C° 0 mm 2 mps 703 mmHg 91%
    20:00 -5°C° 0 mm 2 mps 703 mmHg 91%
    21:00 -4°C° 0 mm 2 mps 702 mmHg 90%
    22:00 -4°C° 0 mm 2 mps 702 mmHg 90%
    23:00 -5°C° 0.3 mm 3 mps 702 mmHg 90%

    28 November, Tuesday

    Time Temperature Precipitation Wind Pressure Humidity
    00:00 -4°C° 0.3 mm 3 mps 702 mmHg 91%
    01:00 -4°C° 0.3 mm 3 mps 702 mmHg 91%
    02:00 -2°C° 0.3 mm 3 mps 702 mmHg 91%
    03:00 -2°C° 0.3 mm 3 mps 702 mmHg 91%
    04:00 -2°C° 0.3 mm 3 mps 701 mmHg 91%
    05:00 -2°C° 0.1 mm 3 mps 701 mmHg 91%
    06:00 -2°C° 0.1 mm 3 mps 701 mmHg 90%
    07:00 -2°C° 0.1 mm 3 mps 701 mmHg 89%
    08:00 -1°C° 0 mm 3 mps 701 mmHg 88%
    09:00 -2°C° 0 mm 4 mps 701 mmHg 88%
    10:00 -1°C° 0 mm 4 mps 701 mmHg 87%
    11:00 -1°C° 0 mm 4 mps 701 mmHg 88%
    12:00 0°C° 0 mm 4 mps 701 mmHg 89%
    13:00 +1°C° 0 mm 4 mps 701 mmHg 90%
    14:00 +1°C° 0 mm 4 mps 701 mmHg 90%
    15:00 0°C° 0 mm 4 mps 701 mmHg 89%
    16:00 +1°C° 0 mm 3 mps 701 mmHg 88%
    17:00 0°C° 0 mm 4 mps 701 mmHg 88%
    18:00 0°C° 0 mm 4 mps 701 mmHg 87%
    19:00 0°C° 0 mm 4 mps 701 mmHg 87%
    20:00 0°C° 0 mm 4 mps 701 mmHg 87%
    21:00 0°C° 0 mm 3 mps 701 mmHg 88%
    22:00 0°C° 0 mm 3 mps 700 mmHg 88%
    23:00 0°C° 0 mm 3 mps 700 mmHg 88%
    Show more